When you browse on this site, cookies collect data to enhance your experience and personalize the content and advertising you see.
Visit our Privacy Policy to learn more. By continuing to use the site, you agree to this use of cookies and data.
  • în România
  • Lista ţărilor
  • Pe 7 zile
  • Temperatura apei
  • Hartă satelitară
  • Meteo pe hartă
  • Widget-uri
  • user-avatar
    Intrare

    Meteo pe oră la Gubin

    Astăzi, 20 Mai, Luni

    Timp Temperatura Precipitaţii Vânt Presiune Umiditate
    00:00 +16°C° 0 mm 2 m/s 748 mmHg 94%
    01:00 +15°C° 0 mm 2 m/s 748 mmHg 95%
    02:00 +15°C° 0 mm 1 m/s 748 mmHg 95%
    03:00 +15°C° 0 mm 1 m/s 748 mmHg 95%
    04:00 +14°C° 0 mm 1 m/s 748 mmHg 95%
    05:00 +16°C° 0 mm 1 m/s 748 mmHg 90%
    06:00 +18°C° 0 mm 1 m/s 748 mmHg 86%
    07:00 +18°C° 0 mm 2 m/s 748 mmHg 82%
    08:00 +19°C° 0.4 mm 2 m/s 748 mmHg 80%
    09:00 +20°C° 0.4 mm 2 m/s 748 mmHg 79%
    10:00 +20°C° 0.4 mm 3 m/s 748 mmHg 78%
    11:00 +21°C° 0.8 mm 3 m/s 747 mmHg 73%
    12:00 +22°C° 0.8 mm 3 m/s 747 mmHg 68%
    13:00 +24°C° 0.8 mm 3 m/s 747 mmHg 64%
    14:00 +24°C° 0.7 mm 2 m/s 747 mmHg 64%
    15:00 +24°C° 0.7 mm 2 m/s 747 mmHg 65%
    16:00 +24°C° 0.7 mm 1 m/s 746 mmHg 65%
    17:00 +23°C° 0.4 mm 1 m/s 746 mmHg 71%
    18:00 +22°C° 0.4 mm 1 m/s 746 mmHg 76%
    19:00 +21°C° 0.4 mm 1 m/s 746 mmHg 82%
    20:00 +20°C° 0 mm 1 m/s 747 mmHg 85%
    21:00 +18°C° 0 mm 1 m/s 747 mmHg 88%
    22:00 +16°C° 0 mm 1 m/s 747 mmHg 91%
    23:00 +16°C° 0 mm 1 m/s 747 mmHg 92%

    Mâine, 21 Mai, Marţi

    Timp Temperatura Precipitaţii Vânt Presiune Umiditate
    00:00 +15°C° 0 mm 1 m/s 747 mmHg 93%
    01:00 +15°C° 0 mm 1 m/s 747 mmHg 93%
    02:00 +15°C° 0 mm 1 m/s 747 mmHg 94%
    03:00 +14°C° 0 mm 1 m/s 747 mmHg 94%
    04:00 +14°C° 0 mm 1 m/s 747 mmHg 94%
    05:00 +15°C° 0 mm 1 m/s 748 mmHg 90%
    06:00 +18°C° 0 mm 1 m/s 748 mmHg 86%
    07:00 +19°C° 0 mm 1 m/s 748 mmHg 83%
    08:00 +21°C° 0 mm 1 m/s 748 mmHg 74%
    09:00 +23°C° 0 mm 1 m/s 748 mmHg 66%
    10:00 +24°C° 0 mm 1 m/s 748 mmHg 58%
    11:00 +25°C° 0.1 mm 1 m/s 748 mmHg 57%
    12:00 +25°C° 0.1 mm 2 m/s 748 mmHg 57%
    13:00 +25°C° 0.1 mm 2 m/s 748 mmHg 56%
    14:00 +24°C° 0.4 mm 3 m/s 748 mmHg 62%
    15:00 +22°C° 0.4 mm 3 m/s 748 mmHg 68%
    16:00 +22°C° 0.4 mm 3 m/s 748 mmHg 75%
    17:00 +21°C° 0.6 mm 3 m/s 748 mmHg 80%
    18:00 +20°C° 0.6 mm 3 m/s 748 mmHg 86%
    19:00 +19°C° 0.6 mm 2 m/s 748 mmHg 91%
    20:00 +18°C° 1 mm 3 m/s 748 mmHg 92%
    21:00 +18°C° 1 mm 3 m/s 748 mmHg 94%
    22:00 +17°C° 1 mm 3 m/s 748 mmHg 95%
    23:00 +17°C° 0.7 mm 3 m/s 748 mmHg 96%

    Poimâine, 22 Mai, Miercuri

    Timp Temperatura Precipitaţii Vânt Presiune Umiditate
    00:00 +17°C° 0.7 mm 3 m/s 748 mmHg 96%
    01:00 +17°C° 0.7 mm 4 m/s 748 mmHg 97%
    02:00 +15°C° 0.1 mm 4 m/s 748 mmHg 96%
    03:00 +15°C° 0.1 mm 4 m/s 748 mmHg 95%
    04:00 +15°C° 0.1 mm 4 m/s 748 mmHg 95%
    05:00 +15°C° 0.1 mm 4 m/s 748 mmHg 95%
    06:00 +15°C° 0.1 mm 4 m/s 748 mmHg 95%
    07:00 +15°C° 0.1 mm 4 m/s 748 mmHg 95%
    08:00 +17°C° 0.3 mm 4 m/s 748 mmHg 94%
    09:00 +17°C° 0.3 mm 4 m/s 749 mmHg 94%
    10:00 +17°C° 0.3 mm 4 m/s 749 mmHg 93%
    11:00 +16°C° 1.1 mm 5 m/s 749 mmHg 93%
    12:00 +16°C° 1.1 mm 6 m/s 750 mmHg 92%
    13:00 +15°C° 1.1 mm 7 m/s 750 mmHg 92%
    14:00 +15°C° 0.3 mm 7 m/s 750 mmHg 92%
    15:00 +15°C° 0.3 mm 7 m/s 751 mmHg 91%
    16:00 +14°C° 0.3 mm 7 m/s 751 mmHg 90%
    17:00 +14°C° 0.1 mm 7 m/s 752 mmHg 90%
    18:00 +14°C° 0.1 mm 7 m/s 752 mmHg 91%
    19:00 +14°C° 0.1 mm 7 m/s 753 mmHg 91%
    20:00 +12°C° 0.1 mm 7 m/s 753 mmHg 90%
    21:00 +12°C° 0.1 mm 7 m/s 754 mmHg 89%
    22:00 +13°C° 0.1 mm 6 m/s 755 mmHg 88%
    23:00 +13°C° 0.1 mm 6 m/s 755 mmHg 88%

    23 Mai, Joi

    Timp Temperatura Precipitaţii Vânt Presiune Umiditate
    00:00 +11°C° 0.1 mm 6 m/s 755 mmHg 88%
    01:00 +11°C° 0.1 mm 6 m/s 756 mmHg 88%
    02:00 +10°C° 0.1 mm 6 m/s 756 mmHg 89%
    03:00 +9°C° 0.1 mm 6 m/s 757 mmHg 89%
    04:00 +9°C° 0.1 mm 6 m/s 757 mmHg 90%
    05:00 +8°C° 0 mm 5 m/s 758 mmHg 88%
    06:00 +8°C° 0 mm 5 m/s 758 mmHg 87%
    07:00 +8°C° 0 mm 5 m/s 759 mmHg 85%
    08:00 +9°C° 0 mm 5 m/s 759 mmHg 81%
    09:00 +10°C° 0 mm 4 m/s 759 mmHg 76%
    10:00 +11°C° 0 mm 4 m/s 760 mmHg 72%
    11:00 +13°C° 0 mm 4 m/s 759 mmHg 63%
    12:00 +15°C° 0 mm 4 m/s 759 mmHg 55%
    13:00 +18°C° 0 mm 4 m/s 759 mmHg 46%
    14:00 +18°C° 0 mm 4 m/s 759 mmHg 45%
    15:00 +19°C° 0 mm 4 m/s 758 mmHg 45%
    16:00 +19°C° 0 mm 4 m/s 758 mmHg 44%
    17:00 +18°C° 0 mm 3 m/s 758 mmHg 50%
    18:00 +17°C° 0 mm 2 m/s 758 mmHg 56%
    19:00 +16°C° 0 mm 1 m/s 758 mmHg 62%
    20:00 +14°C° 0 mm 1 m/s 758 mmHg 67%
    21:00 +13°C° 0 mm 1 m/s 758 mmHg 73%
    22:00 +11°C° 0 mm 1 m/s 759 mmHg 78%
    23:00 +10°C° 0 mm 1 m/s 758 mmHg 81%

    24 Mai, Vineri

    Timp Temperatura Precipitaţii Vânt Presiune Umiditate
    00:00 +10°C° 0 mm 1 m/s 758 mmHg 84%
    01:00 +9°C° 0 mm 1 m/s 758 mmHg 87%
    02:00 +9°C° 0 mm 1 m/s 758 mmHg 88%
    03:00 +9°C° 0 mm 1 m/s 757 mmHg 89%
    04:00 +9°C° 0 mm 1 m/s 757 mmHg 90%
    05:00 +10°C° 0 mm 1 m/s 757 mmHg 82%
    06:00 +12°C° 0 mm 1 m/s 757 mmHg 75%
    07:00 +14°C° 0 mm 1 m/s 756 mmHg 67%
    08:00 +16°C° 0 mm 1 m/s 756 mmHg 60%
    09:00 +19°C° 0 mm 1 m/s 756 mmHg 52%
    10:00 +19°C° 0 mm 2 m/s 755 mmHg 45%
    11:00 +20°C° 0 mm 2 m/s 755 mmHg 42%
    12:00 +21°C° 0 mm 2 m/s 754 mmHg 39%
    13:00 +23°C° 0 mm 2 m/s 753 mmHg 36%
    14:00 +23°C° 0 mm 2 m/s 753 mmHg 36%
    15:00 +24°C° 0 mm 2 m/s 752 mmHg 35%
    16:00 +24°C° 0 mm 2 m/s 752 mmHg 35%
    17:00 +21°C° 0 mm 2 m/s 751 mmHg 42%
    18:00 +20°C° 0 mm 2 m/s 751 mmHg 50%
    19:00 +19°C° 0 mm 2 m/s 751 mmHg 57%
    20:00 +17°C° 0 mm 2 m/s 751 mmHg 64%
    21:00 +16°C° 0 mm 2 m/s 751 mmHg 72%
    22:00 +13°C° 0 mm 3 m/s 751 mmHg 79%
    23:00 +12°C° 0 mm 3 m/s 751 mmHg 82%

    25 Mai, Sâmbătă

    Timp Temperatura Precipitaţii Vânt Presiune Umiditate
    00:00 +13°C° 0 mm 2 m/s 751 mmHg 85%
    01:00 +12°C° 0 mm 2 m/s 751 mmHg 88%
    02:00 +12°C° 0 mm 2 m/s 751 mmHg 88%
    03:00 +10°C° 0 mm 2 m/s 751 mmHg 88%
    04:00 +10°C° 0 mm 2 m/s 751 mmHg 88%
    05:00 +13°C° 0 mm 2 m/s 751 mmHg 80%
    06:00 +15°C° 0 mm 1 m/s 752 mmHg 72%
    07:00 +18°C° 0 mm 1 m/s 752 mmHg 64%
    08:00 +20°C° 0 mm 1 m/s 752 mmHg 59%
    09:00 +22°C° 0 mm 1 m/s 752 mmHg 53%
    10:00 +24°C° 0 mm 1 m/s 752 mmHg 48%
    11:00 +25°C° 0 mm 1 m/s 752 mmHg 45%
    12:00 +26°C° 0 mm 1 m/s 752 mmHg 42%
    13:00 +28°C° 0 mm 1 m/s 752 mmHg 39%
    14:00 +27°C° 0.1 mm 1 m/s 752 mmHg 42%
    15:00 +26°C° 0.1 mm 2 m/s 752 mmHg 45%
    16:00 +26°C° 0.1 mm 3 m/s 752 mmHg 47%
    17:00 +24°C° 0.4 mm 3 m/s 752 mmHg 58%
    18:00 +21°C° 0.4 mm 3 m/s 752 mmHg 69%
    19:00 +19°C° 0.4 mm 3 m/s 752 mmHg 80%
    20:00 +18°C° 0.1 mm 2 m/s 752 mmHg 85%
    21:00 +17°C° 0.1 mm 2 m/s 753 mmHg 89%
    22:00 +16°C° 0.1 mm 2 m/s 753 mmHg 93%
    23:00 +15°C° 0 mm 2 m/s 753 mmHg 94%
    Arată mai mult